[[{"header":{"parameterUnit":"m.s-1","parameterCategory":1,"la1":30.2991,"la2":30.254,"lo1":-89.0895,"lo2":-89.0444,"dy":0.0017,"dx":0.0017,"nx":28,"ny":28,"refTime":"2023-11-21T03:00:00:Z","depth":0,"parameterNumber":2,"parameterNumberName":"U-component_of_WINDS"},"data":[0,0,0,0,0,0,0,0,0,0,0,0,0,0,0,0,0,0,0,0,0,0,0,0,0,0,0,0,0,0,0,0,0,0,0,0,0,0,0,0,0,0,0,0,0,0,0,0,0,0,0,0,0,0,0,0,0,0,0.1062,0.1062,0,0.1023,0.1022,0.1022,0.1008,0.1009,0.1009,0.1009,0.0969,0.0968,0.0966,0,0,0,0,0,0,0,0,0,0,0,0,0,0.1129,0.1128,0.1062,0.1062,0.1061,0.1023,0.1022,0.1022,0.1008,0.1009,0.1009,0.1009,0.0969,0.0968,0.0966,0,0,0,0,0,0,0,0,0,0,0,0,0,0.1096,0.1127,0.1062,0.105,0.1049,0.1023,0.1022,0.1021,0.1008,0.1009,0.1009,0.1009,0.097,0.0968,0.0966,0.095,0,0,0.0961,0.096,0,0,0,0,0,0,0,0,0.1098,0.1093,0.1052,0.1051,0.1049,0.1021,0.1031,0.0997,0.1008,0.1024,0.1009,0.1009,0.0986,0.0983,0.0975,0.0948,0.0946,0.096,0.0959,0.0959,0.0958,0,0,0,0,0,0,0,0.11,0.1095,0.1047,0.1052,0.105,0.1047,0.1043,0.1024,0.1004,0.1022,0.1021,0.1017,0.0985,0.0977,0.0974,0.0946,0.096,0.0959,0.0958,0.0957,0.0905,0.0905,0,0,0,0,0,0,0.1104,0.1097,0.1048,0.1045,0.1074,0.1046,0.1041,0.103,0.1004,0.1,0.1017,0.1016,0.098,0.0976,0.0972,0.0952,0.0959,0.0957,0.0956,0.0905,0.0905,0.0905,0,0,0,0,0,0,0.1105,0.11,0.105,0.1071,0.1064,0.1044,0.1032,0.1029,0.102,0.1,0.0996,0.1011,0.098,0.0975,0.0956,0.0951,0.0956,0.0954,0.0906,0.0905,0.0905,0.0912,0,0,0,0,0,0,0.1107,0.11,0.1093,0.1071,0.1063,0.1033,0.1032,0.1028,0.1017,0.1016,0.0994,0.0991,0.0979,0.0959,0.0954,0.0948,0.0953,0.0906,0.0906,0.0905,0.0912,0.0911,0.0911,0,0,0,0,0,0.111,0.1097,0.1093,0.1087,0.1054,0.1033,0.1028,0.1016,0.1017,0.101,0.0997,0.0991,0.0952,0.0957,0.0951,0.0945,0.0906,0.0906,0.0905,0.0912,0.0911,0.0911,0,0,0,0,0,0,0.1119,0.1093,0.1089,0.1068,0.1053,0.1031,0.1021,0.1016,0.1,0.1,0.0985,0.098,0.0962,0.0952,0.0958,0.0929,0.0929,0.0927,0.0936,0.0936,0.0935,0.0938,0.0951,0,0,0,0,0,0.1119,0.1103,0.1082,0.1066,0.1058,0.1041,0.1031,0.1023,0.1007,0.1,0.0986,0.097,0.0955,0.0945,0.0929,0.0911,0.0906,0.0904,0.0903,0.0903,0.0902,0.0892,0.0891,0.0903,0.0903,0.0903,0,0,0.1118,0.1102,0.1093,0.1067,0.1054,0.1039,0.1036,0.102,0.1008,0.0998,0.0979,0.0968,0.095,0.0932,0.0923,0.0922,0.0898,0.0903,0.0903,0.0901,0.0892,0.089,0.089,0.0902,0.0902,0.0902,0,0,0.1108,0.1094,0.1079,0.1067,0.1047,0.1037,0.1033,0.1012,0.1005,0.0986,0.0978,0.0965,0.0938,0.0925,0.0916,0.0904,0.0898,0.0899,0.0897,0.0888,0.0887,0.0886,0.0882,0.0881,0.0898,0.0898,0.0898,0,0.1109,0.1085,0.1073,0.1057,0.1046,0.1037,0.1022,0.1011,0.0987,0.098,0.0981,0.0947,0.0934,0.0913,0.0911,0.0903,0.0899,0.0901,0.0888,0.0887,0.0886,0.0882,0.0881,0.0898,0.0898,0.0898,0.0898,0,0.1088,0.1072,0.1063,0.104,0.1029,0.1014,0.1,0.099,0.0983,0.0973,0.0954,0.0939,0.092,0.0915,0.0908,0.0893,0.0893,0.0891,0.0891,0.0886,0.0882,0.088,0.0898,0.0898,0.0898,0.0898,0,0,0.1081,0.1054,0.105,0.1041,0.1019,0.1007,0.0993,0.0975,0.0966,0.0951,0.0939,0.0918,0.0916,0.0905,0.0897,0.0889,0.0881,0.0888,0.0887,0.0887,0.0865,0.0866,0.0864,0.0878,0.0877,0.0877,0.0866,0,0.1069,0.1042,0.1031,0.1009,0.0994,0.0986,0.0973,0.0959,0.095,0.0937,0.0926,0.0911,0.091,0.0903,0.0895,0.0884,0.0876,0.0884,0.0866,0.0866,0.0871,0.0862,0.0864,0.0854,0.0864,0.0864,0.0864,0,0.105,0.1035,0.1012,0.0994,0.0987,0.0976,0.0959,0.0947,0.0932,0.0925,0.0914,0.0907,0.0892,0.0894,0.0874,0.088,0.0872,0.0866,0.0865,0.0862,0.0864,0.086,0.085,0.0849,0.0861,0.0862,0.0862,0,0.1048,0.1022,0.1005,0.0997,0.0975,0.0968,0.0958,0.0943,0.0934,0.092,0.0913,0.0898,0.0889,0.0878,0.0867,0.0869,0.0848,0.0849,0.0843,0.0843,0.0838,0.0839,0.0828,0.0834,0.0834,0.0834,0.0834,0,0.1035,0.1021,0.1004,0.0993,0.0978,0.0966,0.0952,0.0942,0.0929,0.0917,0.0909,0.0898,0.0885,0.0873,0.0864,0.085,0.0846,0.0841,0.0839,0.0841,0.0842,0.0835,0.0836,0.0834,0.0834,0.0834,0.0834,0,0.1029,0.1017,0.0998,0.098,0.0975,0.0964,0.0949,0.0939,0.0929,0.0915,0.091,0.0896,0.0881,0.087,0.085,0.0845,0.0829,0.0827,0.0834,0.0833,0.0828,0.0829,0.0813,0.081,0.0818,0.0818,0.0818,0,0.1021,0.1011,0.0991,0.0983,0.0974,0.096,0.095,0.0939,0.0929,0.0912,0.0904,0.0889,0.0876,0.0854,0.0842,0.0827,0.0825,0.082,0.0822,0.0826,0.0825,0.0825,0.0824,0.0819,0.0819,0.0819,0.0819,0,0.1009,0.1004,0.099,0.0975,0.0963,0.0951,0.0938,0.0932,0.0918,0.0908,0.0893,0.0883,0.0864,0.0849,0.0834,0.0825,0.082,0.0819,0.0817,0.0819,0.0824,0.0821,0.0834,0.0819,0.0819,0.0819,0.0819,0.0819,0.1002,0.0993,0.0978,0.0963,0.0952,0.0941,0.0931,0.0921,0.0908,0.0891,0.0886,0.087,0.0857,0.0836,0.0827,0.0816,0.0816,0.0812,0.0812,0.0811,0.0811,0.0826,0.0813,0.0813,0.0813,0.0813,0.0813,0,0.0989,0.098,0.0966,0.0949,0.0938,0.0934,0.0921,0.0912,0.0898,0.0886,0.0874,0.0857,0.0843,0.0831,0.0817,0.081,0.0808,0.0807,0.0807,0.0805,0.0812,0.0816,0.0809,0.0809,0.0809,0.0809,0.0809,0.0809,0.0981,0.0965,0.0959,0.0938,0.0928,0.0913,0.0906,0.0896,0.0886,0.0868,0.0856,0.0848,0.0836,0.0822,0.0809,0.0806,0.0801,0.0801,0.0797,0.0804,0.0805,0.0805,0.0808,0.08,0.08,0.0791,0.0791,0.0791]},{"header":{"parameterUnit":"m.s-1","parameterCategory":1,"la1":30.2991,"la2":30.254,"lo1":-89.0895,"lo2":-89.0444,"dy":0.0017,"dx":0.0017,"nx":28,"ny":28,"refTime":"2023-11-21T03:00:00:Z","depth":0,"parameterNumber":3,"parameterNumberName":"V-component_of_WINDS"},"data":[0,0,0,0,0,0,0,0,0,0,0,0,0,0,0,0,0,0,0,0,0,0,0,0,0,0,0,0,0,0,0,0,0,0,0,0,0,0,0,0,0,0,0,0,0,0,0,0,0,0,0,0,0,0,0,0,0,0,-6.0669,-6.0671,0,-6.081,-6.0811,-6.0813,-6.0752,-6.0749,-6.0745,-6.0742,-6.0881,-6.0888,-6.0895,0,0,0,0,0,0,0,0,0,0,0,0,0,-6.0344,-6.035,-6.0669,-6.0671,-6.0673,-6.0809,-6.0811,-6.0813,-6.0753,-6.0749,-6.0744,-6.0741,-6.0879,-6.0887,-6.0895,0,0,0,0,0,0,0,0,0,0,0,0,0,-6.0485,-6.0352,-6.0669,-6.0659,-6.066,-6.0809,-6.0811,-6.0814,-6.0754,-6.0749,-6.0743,-6.0739,-6.0876,-6.0886,-6.0897,-6.1062,0,0,-6.0928,-6.0933,0,0,0,0,0,0,0,0,-6.0477,-6.0497,-6.0659,-6.066,-6.0661,-6.0758,-6.0748,-6.0897,-6.0755,-6.0718,-6.0742,-6.0736,-6.0844,-6.0857,-6.0894,-6.1069,-6.1075,-6.0929,-6.0935,-6.094,-6.0943,0,0,0,0,0,0,0,-6.0467,-6.049,-6.0724,-6.0661,-6.0663,-6.0646,-6.0661,-6.0776,-6.0808,-6.0721,-6.0717,-6.0734,-6.0844,-6.0884,-6.0897,-6.1077,-6.0929,-6.0938,-6.0944,-6.0948,-6.1393,-6.1399,0,0,0,0,0,0,-6.0458,-6.0483,-6.072,-6.0729,-6.0555,-6.0656,-6.0672,-6.0732,-6.0806,-6.0813,-6.0739,-6.0731,-6.0869,-6.0885,-6.0902,-6.11,-6.094,-6.0949,-6.0955,-6.1388,-6.1394,-6.1401,0,0,0,0,0,0,-6.0451,-6.048,-6.0714,-6.0605,-6.0633,-6.0667,-6.0735,-6.0738,-6.0778,-6.082,-6.0825,-6.0775,-6.0866,-6.0887,-6.1023,-6.1104,-6.0954,-6.0963,-6.1381,-6.139,-6.1397,-6.1498,0,0,0,0,0,0,-6.0442,-6.0478,-6.0542,-6.0607,-6.064,-6.0835,-6.074,-6.0744,-6.0797,-6.0788,-6.0855,-6.0861,-6.0864,-6.1008,-6.1033,-6.1115,-6.0971,-6.1374,-6.1385,-6.1395,-6.1488,-6.1509,-6.1527,0,0,0,0,0,-6.0431,-6.0564,-6.0546,-6.0575,-6.0721,-6.084,-6.0858,-6.086,-6.0804,-6.0868,-6.0894,-6.0859,-6.1091,-6.1022,-6.105,-6.1137,-6.1369,-6.1382,-6.1394,-6.1479,-6.1505,-6.1527,0,0,0,0,0,0,-6.0507,-6.0573,-6.0553,-6.0711,-6.0771,-6.0829,-6.0911,-6.0887,-6.0963,-6.0951,-6.0948,-6.0964,-6.1104,-6.1134,-6.1056,-6.1301,-6.1221,-6.124,-6.1276,-6.1301,-6.1321,-6.131,-6.098,0,0,0,0,0,-6.0543,-6.0635,-6.0687,-6.0821,-6.0852,-6.0877,-6.0928,-6.0925,-6.0985,-6.101,-6.1046,-6.1105,-6.1191,-6.1248,-6.1329,-6.1492,-6.1505,-6.1565,-6.1585,-6.1601,-6.1617,-6.1704,-6.1731,-6.1442,-6.1442,-6.1442,0,0,-6.0616,-6.0663,-6.0722,-6.0838,-6.0883,-6.0978,-6.0898,-6.1001,-6.1071,-6.1025,-6.1155,-6.1184,-6.125,-6.14,-6.1467,-6.1429,-6.17,-6.1617,-6.163,-6.1637,-6.172,-6.1747,-6.1772,-6.1451,-6.1449,-6.1448,0,0,-6.0799,-6.0845,-6.0962,-6.1009,-6.1079,-6.1095,-6.1123,-6.1186,-6.1203,-6.1335,-6.1302,-6.1384,-6.1532,-6.158,-6.1624,-6.1825,-6.1794,-6.1851,-6.1954,-6.2039,-6.2062,-6.2082,-6.2153,-6.2178,-6.1867,-6.1867,-6.1868,0,-6.0881,-6.1024,-6.1024,-6.1131,-6.1182,-6.1146,-6.1264,-6.1309,-6.1402,-6.1438,-6.1393,-6.1579,-6.1621,-6.1781,-6.183,-6.1867,-6.1897,-6.1843,-6.2059,-6.2079,-6.2098,-6.2165,-6.2192,-6.1874,-6.1873,-6.1872,-6.1872,0,-6.1121,-6.122,-6.1306,-6.1398,-6.1459,-6.1571,-6.1587,-6.1648,-6.1639,-6.1658,-6.1792,-6.1841,-6.1931,-6.1969,-6.196,-6.2128,-6.2101,-6.2059,-6.1978,-6.2132,-6.2195,-6.2221,-6.1883,-6.1881,-6.1879,-6.1877,0,0,-6.1355,-6.1446,-6.1478,-6.1519,-6.1594,-6.167,-6.1779,-6.1869,-6.1921,-6.1986,-6.2077,-6.2204,-6.2164,-6.2214,-6.221,-6.2285,-6.244,-6.2233,-6.2234,-6.2269,-6.2626,-6.2658,-6.2688,-6.2421,-6.2426,-6.243,-6.262,0,-6.1542,-6.1735,-6.1739,-6.1915,-6.2006,-6.1974,-6.2068,-6.2124,-6.2145,-6.2224,-6.2246,-6.2336,-6.2277,-6.2307,-6.238,-6.2406,-6.2511,-6.2392,-6.2503,-6.2507,-6.2487,-6.2721,-6.2755,-6.2933,-6.2645,-6.2649,-6.2652,0,-6.1787,-6.1861,-6.2048,-6.2109,-6.2147,-6.2233,-6.2315,-6.2392,-6.2453,-6.2463,-6.2519,-6.2504,-6.2614,-6.2531,-6.2681,-6.26,-6.2645,-6.2665,-6.2672,-6.2682,-6.2589,-6.2736,-6.2989,-6.3016,-6.2691,-6.2688,-6.2686,0,-6.1938,-6.2085,-6.2215,-6.2251,-6.2326,-6.2387,-6.2421,-6.2478,-6.2531,-6.2603,-6.2638,-6.2721,-6.2766,-6.2829,-6.2837,-6.2776,-6.2988,-6.2905,-6.2997,-6.2997,-6.3043,-6.304,-6.3306,-6.3074,-6.3073,-6.3073,-6.3072,0,-6.2146,-6.2261,-6.2284,-6.2364,-6.2491,-6.2493,-6.2619,-6.2647,-6.2698,-6.2782,-6.2758,-6.2837,-6.2842,-6.2922,-6.2929,-6.3051,-6.3072,-6.3082,-6.3082,-6.3084,-6.3083,-6.3113,-6.31,-6.308,-6.3078,-6.3077,-6.3076,0,-6.2336,-6.2356,-6.2496,-6.2556,-6.2574,-6.2665,-6.2715,-6.2791,-6.281,-6.2916,-6.2941,-6.297,-6.3063,-6.3077,-6.3186,-6.319,-6.3338,-6.3325,-6.3317,-6.3315,-6.3406,-6.3397,-6.3701,-6.3741,-6.3483,-6.3486,-6.3488,0,-6.2468,-6.2555,-6.2626,-6.2681,-6.2718,-6.2807,-6.2862,-6.2868,-6.2926,-6.3003,-6.3069,-6.316,-6.3233,-6.3384,-6.3414,-6.3497,-6.3485,-6.3586,-6.3498,-6.3497,-6.3486,-6.348,-6.3489,-6.3603,-6.3606,-6.3608,-6.361,0,-6.2698,-6.2704,-6.2785,-6.287,-6.2937,-6.3004,-6.3066,-6.3113,-6.3126,-6.3192,-6.3288,-6.3345,-6.3457,-6.3548,-6.363,-6.3663,-6.3639,-6.3638,-6.3663,-6.3666,-6.3657,-6.3662,-6.3363,-6.3631,-6.3628,-6.3627,-6.3626,-6.3625,-6.2863,-6.2939,-6.3,-6.3091,-6.3139,-6.3199,-6.3273,-6.3301,-6.3382,-6.3475,-6.3473,-6.3578,-6.3636,-6.3745,-6.3783,-6.3865,-6.3832,-6.3869,-6.3878,-6.3887,-6.3896,-6.3645,-6.388,-6.3879,-6.3878,-6.3878,-6.3878,0,-6.3091,-6.3129,-6.3213,-6.3303,-6.3374,-6.3347,-6.3415,-6.3476,-6.3569,-6.3627,-6.37,-6.381,-6.3897,-6.3934,-6.402,-6.4078,-6.4069,-6.41,-6.4095,-6.4103,-6.3921,-6.389,-6.4106,-6.4106,-6.4106,-6.4106,-6.4106,-6.4106,-6.3219,-6.3346,-6.3359,-6.351,-6.3546,-6.3651,-6.3692,-6.3746,-6.3792,-6.3916,-6.3989,-6.4014,-6.4062,-6.4151,-6.423,-6.4238,-6.4271,-6.4307,-6.431,-6.4139,-6.4116,-6.4094,-6.4065,-6.4314,-6.4314,-6.4486,-6.4487,-6.4489]}]]